星链-36550(STARLINK-36550)

导读 | 豆包AI

STARLINK-36550是美国SpaceX星链计划的卫星,于2026年1月18日发射。它属于低轨通信卫星,旨在为全球提供高速互联网接入服务,尤其覆盖偏远地区。星链计划通过大规模卫星组网,支撑地面宽带服务,该卫星的入轨进一步扩充了星链星座的通信覆盖能力与服务容量。

基本信息
目录编号:
67495
目录名称:
STARLINK-36550
国际标识:
2026-012C
轨道中心:
EARTH
卫星名称:
星链-36550
卫星全名:
星链-36550(STARLINK-36550)
卫星状态:
在轨 (已飞行127 天)
发射日期:
2026-01-18 UTC
国别 :
美国 (US)
星等 :
--
轨道信息
数据来源 国际轨道数据
星历时间: 2026-05-24T23:14:59+0800
17小时前
查看轨道信息
半长轴: 6861.186km
偏心率: 0.0001776
轨道倾角: 43.003°
近地点辐角 280.328°
升交点赤经 245.782°
平近点角 79.737°
近地点: 481.83km
远地点: 484.268km
周期: 94.267分钟
每日圈数: 15.275802
详细信息
固有亮度:
5
最大亮度:
2.5
卫星平台:
Starlink V1.0
覆盖范围:
全球
运营商:
太空探索技术公司
运营商所在国:
美国
制造商(研发单位):
太空探索技术公司
制造商所在国:
美国
使用方式:
暂无
卫星简介
Starlink 计划是 SpaceX 推出的全球卫星互联网项目,通过发射低轨道卫星,为全球尤其是偏远地区提供高速、低延迟的互联网服务。自 2019 年起,Starlink 已部署数千颗卫星,旨在缩小全球数字鸿沟,推动互联网普及。该项目还为军事、航空等行业提供通信支持,带来广泛经济效益。
2D轨道图
3D轨道图
轨道高度分析图
轨道倾角分析图
轨道综合分析图
查看轨道综合分析图